GW3271 Weather Reports


time (UTC)temp
F
wind
direction
speed
knots
gust
knots
rain 1hr
in
rain 24hr
in
rain mn
in
humidity
%
barometer
mb
20260510104526 71 281 0.0 1.7 0.00 0.00 0.00 85 1011.4
20260510103025 71 238 0.9 4.3 0.00 0.00 0.00 84 1011.0
20260510101534 71 0 0.0 3.5 0.00 0.00 0.00 83 1011.2
20260510100028 71 0 0.0 2.6 0.00 0.00 0.00 83 1011.1
20260510094528 71 250 0.0 2.6 0.00 0.00 0.00 84 1011.1
20260510093029 71 256 0.0 1.7 0.00 0.00 0.00 84 1011.2
20260510091533 71 0 0.0 3.5 0.00 0.00 0.00 84 1011.0
20260510090030 71 141 0.0 2.6 0.00 0.00 0.00 83 1011.2
20260510084534 72 320 0.0 2.6 0.00 0.01 0.00 83 1011.1
20260510083027 72 174 0.0 0.9 0.00 0.01 0.00 82 1011.3
20260510081529 72 199 0.0 1.7 0.00 0.01 0.00 81 1011.4
20260510080027 72 88 0.0 3.5 0.00 0.01 0.00 80 1011.5
20260510074530 72 73 0.0 0.9 0.00 0.01 0.00 80 1011.5
20260510073027 72 0 0.0 1.7 0.00 0.01 0.00 78 1011.3
20260510071530 73 0 0.0 0.9 0.00 0.01 0.00 78 1011.4
20260510070033 73 66 0.0 2.6 0.00 0.01 0.00 77 1011.6
20260510064533 73 75 1.7 3.5 0.00 0.01 0.00 76 1011.5
20260510063028 74 0 0.0 1.7 0.00 0.01 0.00 75 1011.3
20260510061526 74 0 0.0 0.9 0.00 0.01 0.00 75 1011.4
20260510060032 75 0 0.0 2.6 0.00 0.01 0.00 75 1011.2
20260510054531 75 0 0.0 3.5 0.00 0.01 0.00 75 1011.1
20260510053028 75 0 0.9 1.7 0.00 0.01 0.00 76 1011.2
20260510051526 76 0 0.0 0.9 0.00 0.01 0.00 75 1011.3
20260510050028 76 64 0.0 1.7 0.00 0.01 0.00 74 1011.3
20260510044528 76 78 0.0 1.7 0.00 0.01 0.01 75 1011.1
20260510043028 77 53 0.9 4.3 0.00 0.01 0.01 75 1011.2
20260510041527 78 69 0.9 2.6 0.00 0.01 0.01 75 1011.0
20260510040029 78 0 0.0 0.9 0.00 0.01 0.01 73 1010.8
20260510034529 79 0 0.0 1.7 0.00 0.01 0.01 74 1010.6
20260510033028 79 74 0.0 1.7 0.00 0.01 0.01 74 1010.6
20260510031530 79 47 0.9 1.7 0.00 0.01 0.01 73 1010.4
20260510030028 80 0 0.0 1.7 0.00 0.01 0.01 73 1010.3
20260510024529 80 205 0.0 2.6 0.00 0.01 0.01 73 1010.0
20260510023031 81 0 0.0 2.6 0.00 0.01 0.01 73 1009.8
20260510021531 81 0 0.0 2.6 0.00 0.01 0.01 72 1009.6
20260510020028 82 0 0.0 3.5 0.00 0.01 0.01 71 1009.5
20260510014528 83 55 0.0 1.7 0.00 0.01 0.01 68 1009.3
20260510013030 84 25 0.0 1.7 0.00 0.01 0.01 67 1009.1
20260510011530 84 0 0.0 1.7 0.00 0.01 0.01 66 1009.0
20260510010029 85 65 1.7 4.3 0.00 0.01 0.01 64 1008.9
20260510004530 85 53 0.9 4.3 0.00 0.01 0.01 64 1008.9
20260510003026 85 44 0.9 3.5 0.00 0.01 0.01 63 1008.8
20260510001528 86 211 0.0 2.6 0.00 0.01 0.01 61 1008.7
20260510000034 86 264 0.0 4.3 0.00 0.01 0.01 59 1008.5
20260509234539 87 0 0.0 2.6 0.00 0.01 0.01 58 1008.3
20260509233026 86 30 0.9 3.5 0.00 0.01 0.01 57 1008.2
20260509231528 87 79 0.0 5.2 0.00 0.01 0.01 58 1008.2
20260509230028 87 109 0.9 3.5 0.00 0.01 0.01 58 1008.1
20260509224540 87 110 0.9 3.5 0.00 0.01 0.01 57 1008.2
20260509223029 88 96 0.0 5.2 0.00 0.01 0.01 51 1008.2
20260509221531 88 61 0.9 2.6 0.00 0.01 0.01 49 1008.1
20260509220029 89 86 0.0 1.7 0.00 0.01 0.01 43 1008.2
20260509214527 87 215 0.9 3.5 0.00 0.01 0.01 45 1008.3
20260509213026 86 110 1.7 6.1 0.00 0.01 0.01 52 1008.6
20260509211529 86 53 1.7 6.1 0.00 0.01 0.01 51 1008.8
20260509210030 86 233 0.9 4.3 0.00 0.01 0.01 51 1009.1
20260509204529 87 276 0.9 4.3 0.00 0.01 0.01 54 1008.8
20260509203034 86 272 0.9 4.3 0.00 0.01 0.01 49 1009.0
20260509201526 82 73 3.5 11.3 0.00 0.01 0.01 55 1009.2
20260509200028 79 57 4.3 12.2 0.00 0.01 0.01 70 1009.9
20260509194529 83 80 4.3 9.6 0.00 0.01 0.01 58 1009.9
20260509193029 92 0 0.0 3.5 0.00 0.01 0.01 52 1009.5
20260509191528 92 226 0.9 2.6 0.00 0.01 0.01 53 1009.6
20260509190030 90 262 0.0 1.7 0.00 0.01 0.01 59 1009.6
20260509184541 92 267 0.0 1.7 0.00 0.01 0.01 56 1009.8
20260509183027 91 56 0.0 3.5 0.00 0.01 0.01 59 1010.1
20260509181529 90 225 1.7 4.3 0.00 0.01 0.01 61 1010.3
20260509180040 90 256 0.0 3.5 0.00 0.01 0.01 61 1010.4
20260509174530 88 158 1.7 6.1 0.00 0.01 0.01 63 1010.6
20260509173026 88 157 0.0 0.9 0.00 0.01 0.01 65 1011.0
20260509171528 86 261 0.9 4.3 0.00 0.01 0.01 66 1011.1
20260509170045 85 120 1.7 5.2 0.00 0.01 0.01 71 1011.0
20260509164527 86 272 1.7 4.3 0.00 0.01 0.01 70 1011.2
20260509163027 84 231 1.7 5.2 0.00 0.01 0.01 72 1011.3
20260509161527 84 241 0.0 5.2 0.00 0.01 0.01 74 1011.3
20260509160028 82 0 0.0 2.6 0.00 0.01 0.01 75 1011.3
20260509154528 80 188 0.9 3.5 0.00 0.01 0.01 80 1011.3
20260509153031 78 0 0.0 5.2 0.00 0.01 0.01 86 1011.3
20260509151528 77 0 0.9 4.3 0.00 0.01 0.01 86 1011.5
20260509150026 77 131 0.9 2.6 0.00 0.01 0.01 87 1011.3
20260509144532 75 0 0.0 1.7 0.00 0.01 0.01 92 1011.2
20260509143030 74 252 0.0 2.6 0.00 0.01 0.01 92 1011.1
20260509141539 74 206 0.0 3.5 0.00 0.01 0.01 93 1010.8
20260509140028 74 193 0.9 2.6 0.00 0.01 0.01 94 1010.8
20260509134532 73 194 0.0 0.9 0.00 0.01 0.01 94 1010.9
20260509133030 73 0 0.0 0.9 0.00 0.01 0.01 95 1011.2
20260509131530 73 0 0.0 3.5 0.00 0.01 0.01 95 1011.2
20260509130029 72 0 0.0 0.9 0.00 0.01 0.01 95 1010.9
20260509124526 72 0 0.0 0.0 0.00 0.01 0.01 95 1010.7
20260509123032 72 0 0.0 0.0 0.00 0.01 0.01 95 1010.7
20260509121531 72 0 0.0 0.9 0.00 0.01 0.01 95 1010.8
20260509120028 72 0 0.0 1.7 0.00 0.01 0.01 95 1010.9
20260509114534 72 0 0.0 0.9 0.00 0.01 0.01 95 1010.5
20260509113027 72 0 0.0 0.9 0.00 0.01 0.01 95 1011.3
20260509111526 72 0 0.0 0.9 0.00 0.01 0.01 95 1011.4
20260509110028 72 0 0.0 0.0 0.00 0.01 0.01 95 1011.6